Location: The Rolnick Observatory
(41.1711°N, 73.3275°W)
Time: 17:17:11
(UTC-04:00)

Envisat - Visible Passes

Search period start: 22 October 2019 00:00
Search period end: 01 November 2019 00:00
Orbit: 764 x 766 km, 98.1° (Epoch: 22 October)

Date Brightness Start Highest point End Pass type
(mag) Time Alt. Az. Time Alt. Az. Time Alt. Az.
22 Oct 3.0 18:56:25 10° SSE 19:01:30 89° ENE 19:06:37 10° NNW visible
23 Oct 3.4 18:20:09 10° SE 18:24:52 40° ENE 18:29:36 10° N visible
23 Oct 5.4 19:59:58 10° SSW 20:04:00 24° W 20:08:04 10° NW visible
24 Oct 6.3 06:30:37 10° ENE 06:33:10 14° E 06:35:42 10° ESE visible
24 Oct 3.9 19:22:06 10° S 19:27:02 52° W 19:32:00 10° NNW visible
25 Oct 2.9 18:45:13 10° SSE 18:50:15 71° ENE 18:55:20 10° N visible
25 Oct 6.1 20:27:24 10° WSW 20:29:47 13° W 20:32:09 10° WNW visible
26 Oct 5.0 19:48:15 10° SSW 19:52:39 30° W 19:57:06 10° NW visible
27 Oct 6.7 06:20:51 10° ENE 06:21:46 10° E 06:22:40 10° E visible
27 Oct 3.4 19:10:42 10° S 19:15:44 67° WSW 19:20:49 10° NNW visible
28 Oct 3.1 18:34:05 10° SSE 18:39:02 56° ENE 18:44:00 10° N visible
28 Oct 5.8 20:15:08 10° SW 20:18:23 17° W 20:21:39 10° NW visible
29 Oct 6.0 06:43:56 10° NE 06:47:34 19° E 06:51:10 10° SE visible
29 Oct 4.5 19:36:39 10° SSW 19:41:19 37° W 19:46:03 10° NNW visible
30 Oct 3.0 18:59:24 10° SSE 19:04:28 84° WSW 19:09:35 10° NNW visible
31 Oct 3.3 18:23:01 10° SE 18:27:49 44° ENE 18:32:37 10° N visible
31 Oct 5.5 20:03:10 10° SW 20:07:00 22° W 20:10:52 10° NW visible
